Regional Weather Roundup
Issued by NWS Albany, NY

Current Version | Previous Version | Graphics & Text | Print | Product List | Glossary Off
Versions: 1 2 3 4 5 6 7 8 9 10 11 12 13 14 15 16 17 18 19 20 21 22 23 24 25 26 27 28 29 30 31 32 33 34 35 36 37 38 39 40 41 42 43 44 45 46 47 48 49 50

000
ASUS41 KALY 162310
RWRALY

NEW YORK STATE HOURLY WEATHER ROUNDUP
NATIONAL WEATHER SERVICE ALBANY NY
600 PM EST SAT DEC 16 2017

NOTE: "FAIR" INDICATES FEW OR NO CLOUDS BELOW 12,000 FEET WITH NO
SIGNIFICANT WEATHER AND/OR NO OBSTRUCTIONS TO VISIBILITY.

NYZ032-033-038>043-046>054-057>066-NYZ062>081-082-084-170000-
EAST


CITY           SKY/WX    TMP DP  RH WIND       PRES   REMARKS
ALBANY         MOCLDY    25  15  66 NW9       30.08R WCI  15
GLENS FALLS    PTCLDY    17  12  80 CALM      30.05R
POUGHKEEPSIE   CLOUDY    31  22  69 SW6       30.05R WCI  25
NEWBURGH       CLOUDY    28  25  86 W8        30.05R WCI  20
MONTGOMERY     CLOUDY    29  22  75 SW3       30.04R
WHITE PLAINS   CLOUDY    34  24  67 W10       30.04R WCI  26
ISLIP          CLOUDY    37  26  64 W9        30.05R WCI  30
NEW YORK CITY  CLOUDY    40  24  53 W12G26    30.05R WCI  33
CENTRAL PARK   CLOUDY    39  24  55 VRB7G17   30.07R WCI  34
$$

NYZ005>009-017-018-044>046-055-056-170000-
CENTRAL


CITY           SKY/WX    TMP DP  RH WIND       PRES   REMARKS
FULTON         MOCLDY    21   9  59 NW7       30.10R WCI  12
SYRACUSE       FLURRIES  24  22  91 W8        30.09R WCI  15
ROME           CLOUDY    20  17  88 NW5       30.09R WCI  13
ELMIRA         CLOUDY    27  22  81 VRB5      30.08R WCI  22
BINGHAMTON     FLURRIES  22  19  89 NW6       30.02R WCI  14
MONTICELLO     FLURRIES  25  20  81 W10G17    30.02R WCI  15
$$

NYZ026>034-041>043-087-170000-
NORTH


CITY           SKY/WX    TMP DP  RH WIND       PRES   REMARKS
WATERTOWN      CLEAR     15   3  59 NW7       30.10R WCI   5
FORT DRUM      NOT AVBL
OGDENSBURG     FAIR      15   7  71 N7        30.12R WCI   5
MASSENA        CLEAR     12   5  73 W6        30.12R WCI   3
SARANAC LAKE   CLEAR     11   5  77 CALM      29.95R
PLATTSBURGH    CLEAR     18   5  57 NW5       30.07R WCI  11
$$

NYZ001>004-010>016-019>021-085-170000-
WEST


CITY           SKY/WX    TMP DP  RH WIND       PRES   REMARKS
NIAGARA FALLS  FLURRIES  25  14  63 CALM      30.13R
BUFFALO        FLURRIES  23  17  78 NE5       30.13R WCI  17
DUNKIRK        CLOUDY    26  24  92 SE6       30.11R WCI  19
JAMESTOWN      LGT SNOW  25  25 100 N3        30.04R FOG
WELLSVILLE     CLOUDY    25  21  85 CALM      30.03R
ROCHESTER      CLOUDY    24  15  68 W6        30.13R WCI  17
PENN YAN       LGT SNOW  23  17  78 CALM      30.09R
$$

             KEY
       WCI = WIND CHILL INDEX
       VSB = VISIBILITY
       HX  = HEAT INDEX
$$



USA.gov is the U.S. government's official web portal to all federal, state and local government web resources and services.